Regional Weather Roundup
Issued by NWS

Home | Current Version | Previous Version | Text Only | Print | Product List | Glossary Off
Versions: 1 2 3 4 5 6 7 8 9 10 11 12 13 14 15 16 17 18 19 20 21 22 23 24 25 26 27 28 29 30 31 32 33 34 35 36 37 38 39 40 41 42 43 44 45 46 47 48 49 50

000
ASUS43 KLOT 172100
RWRIL

ILLINOIS REGIONAL WEATHER ROUNDUP
NATIONAL WEATHER SERVICE CHICAGO/ROMEOVILLE IL
400 PM CDT WED SEP 17 2014

NOTE: "FAIR" INDICATES FEW OR NO CLOUDS BELOW 12,000 FEET WITH NO
SIGNIFICANT WEATHER AND/OR OBSTRUCTIONS TO VISIBILITY.

* THESE STATIONS ARE NOT UNDER NWS QUALITY CONTROL. THEY ALSO MAY NOT
  REPORT WEATHER SUCH AS PRECIPITATION OR FOG.

ILZ001-002-007-009-015-016-024-172200-
NORTHWEST ILLINOIS

CITY           SKY/WX    TMP DP  RH WIND       PRES   REMARKS
MOLINE         SUNNY     69  50  50 VRB3      29.96F
STERLING*      MOSUNNY   72  52  49 W6        29.97F
$$

ILZ003-004-008-010-011-017-018-172200-
NORTH CENTRAL ILLINOIS

CITY           SKY/WX    TMP DP  RH WIND       PRES   REMARKS
ROCKFORD       MOSUNNY   71  50  47 W6        29.99F
$$

ILZ005-006-012>014-019>023-172200-
NORTHEAST ILLINOIS

CITY           SKY/WX    TMP DP  RH WIND       PRES   REMARKS
CHICAGO-OHARE  MOSUNNY   66  45  46 CALM      29.98F
CHICAGO-MIDWAY MOSUNNY   71  45  39 VRB7      29.98F
AURORA         SUNNY     71  46  40 W5        29.97F
WAUKEGAN       SUNNY     64  48  56 SE10      29.98F
DUPAGE AIRPORT SUNNY     71  47  42 S7        29.98F
WHEELING       SUNNY     70  45  40 MISG      30.00F
NORTHERLY ISL    N/A     65  49  56 NE9         N/A
$$

LMZ740>746-172200-
SOUTHERN LAKE MICHIGAN

STATION/POSITION SKY/WX   TEMP    WIND        PRES    VSBY  WAVE
                          AIR SEA DIR/SP/G                  HT/PER
                          (F)     (DEG/KT/KT) (MB)    (MI)  (FT/S)
SOUTHERN BUOY              62 65  220/  4/  4 1016.4F         1/ 4
WAUKEGAN HARBOR            66     150/ 10/ 10   N/A
HARRISON CRIB              62      90/  9/ 10   N/A
BURNHAM HARBOR             65      50/  7/  8   N/A
CALUMET HARBOR             64      60/  8/ 10 1014.2F
MICHIGAN CITY              62     350/  6/  7   N/A
MICHIGAN CITY 6N           63 66   50/  6/  8   N/A           0
ST. JOSEPH                 63 67  320/  6/  8   N/A           1/ 2
$$

ILZ025>027-034>036-040-047-049-050-058-095>099-172200-
WEST-CENTRAL ILLINOIS

CITY           SKY/WX    TMP DP  RH WIND       PRES   REMARKS
QUINCY         MOSUNNY   68  57  68 E7        29.95S
MACOMB*        CLOUDY    66  54  63 SE5       29.99F
$$

ILZ028>032-037-038-041>044-048-051>054-059>061-172200-
CENTRAL ILLINOIS

CITY           SKY/WX    TMP DP  RH WIND       PRES   REMARKS
DECATUR        CLOUDY    66  50  56 S5        29.98F
PEORIA         CLOUDY    68  52  56 SW5       29.98F
SPRINGFIELD    CLOUDY    66  52  60 VRB6      29.97F
TAYLORVILLE    NOT AVBL
$$

ILZ033-039-045-046-055>057-062-063-172200-
EAST-CENTRAL ILLINOIS

CITY           SKY/WX    TMP DP  RH WIND       PRES   REMARKS
CHAMPAIGN      CLOUDY    67  50  54 VRB5      29.98F
MATTOON        CLOUDY    64  51  62 SE3       29.98F
$$

ILZ079-100>102-172200-
SOUTHWEST ILLINOIS

CITY           SKY/WX    TMP DP  RH WIND       PRES   REMARKS
ALTON          CLOUDY    63  55  77 E8        29.97F
BELLEVILLE     CLOUDY    65  56  74 NE6       29.95F
CAHOKIA*       CLOUDY    67  57  70 E8        29.95F
$$

ILZ064>066-069>071-074>076-080>082-084>086-088>090-092>094-172200-
SOUTH-CENTRAL ILLINOIS

CITY           SKY/WX    TMP DP  RH WIND       PRES   REMARKS
CARBONDALE     MOSUNNY   70  56  61 VRB7      29.95S
MARION         MOSUNNY   72  54  53 SE7       29.96F
MT. VERNON     PTSUNNY   66  55  68 NE6       29.98S
$$

ILZ067-068-072-073-078-083-087-091-172200-
SOUTHEAST ILLINOIS

CITY           SKY/WX    TMP DP  RH WIND       PRES   REMARKS
LAWRENCEVILLE  PTSUNNY   68  51  54 NE7       29.97F
ROBINSON*      PTSUNNY   68  53  58 CALM      29.98F
$$

ABBREVIATIONS USED IN REMARKS
   TC - TEMPERATURE IN CELSIUS
  WCI - WIND CHILL INDEX
   HX - HEAT INDEX
  VSB - VISIBILITY
$$




USA.gov is the U.S. government's official web portal to all federal, state and local government web resources and services.